Date,TemperatureHighF,TemperatureAvgF,TemperatureLowF,DewpointHighF,DewpointAvgF,DewpointLowF,HumidityHigh,HumidityAvg,HumidityLow,PressureMaxIn,PressureMinIn,WindSpeedMaxMPH,WindSpeedAvgMPH,GustSpeedMaxMPH,PrecipitationSumIn
2014-1-1,80.0,74.2,71.0,72.0,68.9,63.0,96,83,72,30.20,30.04,12,9,41,0.00
2014-1-2,83.0,74.9,68.0,71.0,68.5,67.0,98,81,58,30.04,29.86,17,8,45,0.00
2014-1-3,71.0,62.6,56.0,70.0,55.0,44.0,97,76,57,30.18,29.89,18,12,28,0.00
2014-1-4,72.0,66.2,56.0,68.0,58.8,-99.9,95,80,68,30.17,30.06,10,6,18,0.00
2014-1-5,79.0,72.4,68.0,73.0,69.3,66.0,97,89,75,30.07,29.94,14,5,33,0.00
2014-1-6,82.0,70.8,57.0,70.0,64.7,37.0,99,82,50,30.19,29.96,20,8,53,0.00
2014-1-7,56.0,51.8,47.0,49.0,42.1,31.0,86,69,46,30.30,30.19,18,14,30,0.00
2014-1-8,70.0,60.6,50.0,64.0,58.6,46.0,98,93,82,30.30,30.20,14,10,28,0.00
2014-1-9,73.0,70.6,67.0,72.0,68.1,64.0,98,91,82,30.24,30.15,15,10,44,0.00
2014-1-10,80.0,73.6,67.0,72.0,70.2,67.0,99,89,74,30.18,30.07,14,8,46,0.00
2014-1-11,83.0,75.8,68.0,73.0,70.9,68.0,98,85,65,30.12,29.97,14,7,21,0.00
2014-1-13,81.0,75.7,68.0,70.0,68.5,66.0,97,79,64,30.16,30.05,10,7,18,0.00
2014-1-14,81.0,72.3,66.0,72.0,68.1,66.0,99,87,66,30.05,29.94,32,8,51,0.00
2014-1-15,68.0,63.7,58.0,66.0,57.8,52.0,98,82,59,30.03,29.95,12,7,20,0.00
2014-1-16,58.0,54.6,47.0,56.0,44.8,31.0,92,71,38,30.15,29.95,17,10,28,0.00
2014-1-17,64.0,52.0,42.0,46.0,40.6,34.0,86,67,39,30.22,30.10,8,5,12,0.00
2014-1-18,65.0,54.2,47.0,49.0,33.8,-99.9,94,70,38,30.24,30.14,14,6,23,0.00
2014-1-19,68.0,53.5,40.0,53.0,38.8,-99.9,94,66,32,30.27,30.14,11,5,18,0.00
2014-1-20,74.0,62.0,52.0,60.0,54.4,49.0,96,78,52,30.19,30.03,9,5,15,0.00
2014-1-21,70.0,62.7,58.0,62.0,59.0,57.0,96,88,67,30.06,29.88,15,8,25,0.00
2014-1-22,61.0,55.2,47.0,60.0,44.3,35.0,97,68,41,30.16,29.89,61,12,66,0.00
2014-1-23,70.0,54.0,41.0,54.0,46.5,37.0,90,76,56,30.28,30.15,61,8,66,0.00
2014-1-24,68.0,58.8,52.0,54.0,51.3,50.0,94,77,56,30.38,30.23,16,10,47,0.00
2014-1-25,75.0,60.2,50.0,60.0,52.4,-99.9,97,79,54,30.23,30.04,8,4,13,0.00
2014-1-26,78.0,65.8,54.0,63.0,56.8,52.0,98,76,41,30.09,29.97,10,4,49,0.00
2014-1-27,82.0,69.9,58.0,65.0,62.6,57.0,98,79,52,30.03,29.93,16,6,50,0.00
2014-1-28,83.0,70.2,58.0,69.0,64.8,58.0,99,84,55,30.08,29.96,10,5,38,0.00
2014-1-29,72.0,66.0,62.0,71.0,65.0,61.0,99,96,87,30.08,29.98,14,7,22,0.00
2014-1-30,67.0,63.6,60.0,65.0,63.1,60.0,99,98,91,30.11,30.02,15,7,33,0.00
2014-1-31,82.0,73.6,64.0,73.0,70.4,64.0,100,90,71,30.09,30.01,9,6,48,0.00
2014-2-1,83.0,72.9,67.0,73.0,67.6,-99.9,99,87,64,30.14,30.05,12,6,18,0.00
2014-2-2,81.0,73.7,67.0,71.0,69.2,67.0,99,86,64,30.16,30.07,41,9,56,0.00
2014-2-3,83.0,75.9,71.0,72.0,70.9,70.0,97,84,67,30.12,30.03,11,7,17,0.00
2014-2-4,82.0,76.2,71.0,72.0,70.5,69.0,97,82,68,30.15,30.06,13,8,22,0.00
2014-2-5,83.0,75.7,71.0,73.0,71.2,69.0,96,86,63,30.11,30.01,11,7,17,0.00
2014-2-6,82.0,74.8,71.0,72.0,46.6,-99.9,99,87,68,30.13,30.03,10,4,17,0.00
2014-2-7,82.0,72.4,65.0,70.0,39.4,-99.9,99,88,65,30.15,30.06,10,5,14,0.00
2014-2-8,83.0,72.7,67.0,73.0,61.0,-99.9,100,88,61,30.11,30.00,14,6,21,0.00
2014-2-9,77.0,68.2,63.0,67.0,35.5,-99.9,99,87,69,30.10,30.00,14,7,21,0.00
2014-2-10,80.0,69.0,62.0,66.0,63.4,61.0,98,83,60,30.09,30.00,10,6,15,0.00
2014-2-11,84.0,72.6,65.0,69.0,65.5,61.0,97,80,46,30.08,29.98,10,5,59,0.00
2014-2-12,82.0,71.5,63.0,70.0,51.3,-99.9,98,85,60,30.05,29.82,17,8,26,0.00
2014-2-13,71.0,65.8,57.0,67.0,26.9,-99.9,98,80,58,29.97,29.75,20,12,32,0.00
2014-2-14,70.0,58.8,47.0,53.0,47.0,40.0,91,67,37,30.08,29.96,10,6,16,0.00
2014-2-15,77.0,64.3,56.0,61.0,53.4,-99.9,94,72,49,30.12,29.96,17,9,26,0.00
2014-2-16,77.0,62.2,50.0,58.0,52.2,47.0,91,72,38,30.18,30.09,10,5,15,0.00
2014-2-17,77.0,64.7,56.0,60.0,56.9,54.0,96,77,54,30.21,30.13,10,5,17,0.00
2014-2-18,79.0,67.6,57.0,65.0,59.7,57.0,98,78,50,30.23,30.15,41,8,51,0.00
2014-2-19,80.0,67.9,60.0,65.0,62.5,59.0,98,84,57,30.18,30.07,10,4,18,0.00
2014-2-20,81.0,72.4,62.0,70.0,66.6,62.0,98,83,60,30.17,30.07,12,7,19,0.00
2014-2-21,84.0,77.1,72.0,72.0,68.0,-99.9,93,81,65,30.10,30.01,16,9,26,0.00
2014-2-22,87.0,74.0,68.0,72.0,50.2,-99.9,99,83,55,30.11,29.98,12,5,18,0.00
2014-2-23,83.0,75.0,68.0,73.0,52.0,-99.9,99,86,65,30.08,29.98,11,5,45,0.00
2014-2-24,84.0,75.7,68.0,72.0,50.8,-99.9,99,80,57,30.03,29.95,9,5,17,0.00
2014-2-25,82.0,72.9,68.0,70.0,51.2,-99.9,99,87,56,30.03,29.92,11,5,35,0.00
2014-2-26,83.0,73.6,65.0,70.0,33.0,-99.9,99,80,52,29.97,29.75,28,9,60,0.00
2014-2-27,76.0,71.2,63.0,70.0,65.2,61.0,96,82,62,29.93,29.75,11,8,19,0.00
2014-2-28,71.0,63.7,59.0,63.0,59.0,55.0,98,85,60,30.08,29.89,11,6,18,0.00
2014-3-1,78.0,63.1,57.0,64.0,59.1,57.0,98,88,58,30.16,30.04,46,13,49,0.00
2014-3-2,79.0,73.8,66.0,64.0,61.6,60.0,89,66,53,30.17,30.08,12,6,19,0.00
2014-3-3,83.0,72.0,61.0,65.0,62.0,56.0,98,73,40,30.08,29.96,40,5,47,0.00
2014-3-4,81.0,71.2,62.0,67.0,64.3,61.0,98,80,54,30.06,29.96,40,9,58,0.00
2014-3-5,84.0,73.4,64.0,70.0,67.2,63.0,99,82,55,30.03,29.91,13,6,20,0.00
2014-3-6,83.0,71.1,66.0,72.0,67.5,65.0,99,89,58,29.99,29.77,18,7,27,0.00
2014-3-7,76.0,69.4,59.0,67.0,62.0,54.0,98,78,52,30.02,29.78,21,11,36,0.00
2014-3-8,75.0,61.6,53.0,61.0,51.9,-99.9,97,74,50,30.13,30.01,10,6,18,0.00
2014-3-9,78.0,69.5,60.0,65.0,62.1,59.0,99,79,54,30.16,30.07,8,5,13,0.00
2014-3-10,81.0,69.8,63.0,66.0,62.5,60.0,98,80,48,30.12,29.96,44,6,56,0.00
2014-3-11,81.0,71.1,60.0,67.0,63.3,60.0,97,77,53,30.02,29.85,76,8,76,0.00
2014-3-12,84.0,74.8,67.0,71.0,67.2,66.0,96,78,55,29.89,29.74,25,10,49,0.00
2014-3-13,73.0,68.2,55.0,69.0,57.3,45.0,88,69,44,30.15,29.84,15,10,26,0.00
2014-3-14,72.0,63.4,54.0,59.0,52.6,49.0,90,69,50,30.24,30.13,15,8,25,0.00
2014-3-15,80.0,68.6,58.0,63.0,59.0,56.0,98,74,46,30.17,30.03,11,5,19,0.00
2014-3-16,81.0,70.6,63.0,66.0,60.1,-99.9,93,74,54,30.05,29.81,19,9,27,0.00
2014-3-17,85.0,76.4,71.0,71.0,66.5,-99.9,92,74,57,29.83,29.72,21,11,31,0.00
2014-3-18,77.0,71.4,65.0,72.0,64.0,59.0,98,78,54,30.00,29.67,21,11,34,0.00
2014-3-19,79.0,68.1,61.0,66.0,62.5,60.0,97,83,61,30.06,29.96,10,4,17,0.00
2014-3-20,81.0,71.1,64.0,70.0,64.0,-99.9,98,83,65,30.04,29.94,12,5,19,0.00
2014-3-21,82.0,70.8,62.0,69.0,63.8,-99.9,99,83,62,30.05,29.95,13,6,22,0.00
2014-3-22,82.0,75.8,71.0,73.0,69.4,66.0,91,80,66,30.07,29.96,12,8,42,0.00
2014-3-23,86.0,75.2,67.0,72.0,65.0,-99.9,97,74,53,30.05,29.92,50,8,86,0.00
2014-3-24,74.0,70.6,65.0,70.0,67.2,64.0,98,89,72,30.04,29.90,32,7,62,0.00
2014-3-25,76.0,69.4,64.0,69.0,65.2,55.0,99,86,71,29.99,29.83,16,9,26,0.00
2014-3-26,68.0,60.9,54.0,55.0,47.4,41.0,74,61,52,30.23,29.99,18,12,23,0.00
2014-3-27,73.0,71.0,67.0,60.0,58.3,55.0,71,64,54,30.29,30.23,13,10,24,0.00
2014-3-28,80.0,75.6,71.0,68.0,64.8,61.0,82,69,59,30.16,30.05,36,12,67,0.00
2014-3-29,82.0,75.3,68.0,73.0,70.7,65.0,94,85,74,30.08,29.90,16,10,34,0.00
2014-3-30,75.0,67.6,62.0,67.0,46.5,-99.9,96,74,39,30.05,29.90,65,20,70,0.00
2014-3-31,79.0,65.8,56.0,65.0,58.2,53.0,93,77,51,30.13,30.05,45,6,58,0.00
2014-4-1,79.0,67.7,60.0,63.0,58.7,-99.9,98,77,54,30.16,30.09,9,5,17,0.00
2014-4-2,79.0,69.9,59.0,65.0,60.7,59.0,98,74,52,30.18,30.11,12,6,41,0.00
2014-4-3,81.0,71.9,62.0,66.0,63.5,61.0,96,76,59,30.16,30.06,37,9,45,0.00
2014-4-4,83.0,73.9,65.0,67.0,65.0,63.0,97,75,52,30.08,29.99,12,6,20,0.00
2014-4-5,84.0,74.9,65.0,69.0,66.4,64.0,98,76,52,30.05,29.96,20,4,47,0.00
2014-4-6,86.0,74.5,66.0,70.0,64.0,-99.9,99,76,43,30.03,29.92,20,8,57,0.00
2014-4-7,87.0,78.7,72.0,74.0,70.8,67.0,93,77,58,29.98,29.85,16,10,25,0.00
2014-4-8,88.0,77.0,67.0,75.0,71.4,63.0,96,83,59,29.92,29.73,24,12,37,0.00
2014-4-9,75.0,68.7,63.0,65.0,58.2,52.0,91,71,45,30.14,29.87,17,10,38,0.00
2014-4-10,78.0,67.8,59.0,59.0,55.9,51.0,91,67,41,30.25,30.13,14,7,27,0.00
2014-4-11,79.0,67.5,60.0,68.0,62.9,57.0,97,86,59,30.23,30.12,13,4,21,0.00
2014-4-14,84.0,78.1,75.0,73.0,72.1,72.0,92,82,68,29.92,29.89,13,9,21,0.00
2014-4-15,87.0,77.7,70.0,74.0,72.2,70.0,98,84,59,29.92,29.81,14,7,20,0.00
2014-4-16,79.0,73.3,69.0,73.0,69.1,65.0,98,87,68,30.06,29.91,20,9,50,0.00
2014-4-17,82.0,75.3,72.0,73.0,71.1,69.0,95,86,71,30.13,30.03,26,9,48,0.00
2014-4-18,83.0,77.2,71.0,72.0,71.3,69.0,98,82,66,30.09,29.94,15,9,25,0.00
2014-4-19,86.0,76.9,69.0,73.0,70.0,62.0,97,79,58,29.97,29.86,16,9,27,0.00
2014-4-20,76.0,67.5,64.0,64.0,58.6,-99.9,91,75,65,30.03,29.93,51,12,57,0.00
2014-4-21,80.0,68.3,60.0,66.0,62.2,59.0,97,82,60,30.03,29.91,33,8,95,0.00
2014-4-22,83.0,73.9,65.0,69.0,65.7,64.0,96,77,55,29.96,29.84,7,4,31,0.00
2014-4-23,83.0,73.6,64.0,69.0,65.7,64.0,97,77,51,29.95,29.86,9,5,14,0.00
2014-4-24,85.0,76.0,64.0,70.0,66.9,63.0,96,75,51,30.00,29.92,10,6,44,0.00
2014-4-25,88.0,76.9,67.0,71.0,66.6,63.0,97,73,44,30.01,29.90,9,5,15,0.00
2014-4-28,88.0,81.9,78.0,73.0,70.5,67.0,86,69,51,29.92,29.88,11,8,18,0.00
2014-4-29,88.0,81.1,74.0,75.0,73.2,71.0,96,77,58,30.01,29.87,17,9,30,0.00
2014-4-30,89.0,80.8,74.0,75.0,73.7,72.0,96,80,57,30.05,29.94,14,8,24,0.00
2014-5-1,89.0,80.0,74.0,75.0,73.3,70.0,95,81,59,30.04,29.92,48,9,55,0.00
2014-5-2,89.0,79.5,73.0,75.0,72.2,69.0,98,79,52,29.98,29.84,48,8,55,0.00
2014-5-3,84.0,75.3,72.0,75.0,72.0,70.0,97,90,67,29.98,29.89,15,5,23,0.00
2014-5-4,84.0,73.2,67.0,72.0,61.5,-99.9,98,72,40,30.04,29.95,45,9,58,0.00
2014-5-5,86.0,74.1,63.0,68.0,64.6,62.0,98,75,44,30.05,29.96,43,13,59,0.00
2014-5-6,85.0,74.8,62.0,69.0,66.1,62.0,98,76,50,30.03,29.97,10,5,16,0.00
2014-5-7,75.0,75.0,75.0,66.0,66.0,66.0,71,71,71,30.02,30.02,5,5,9,0.00
2014-5-13,80.0,78.7,78.0,74.0,73.0,72.0,83,81,79,30.03,29.99,13,11,23,0.00
2014-5-14,85.0,79.4,73.0,75.0,72.6,69.0,95,79,64,30.04,29.95,15,10,29,0.00
2014-5-15,82.0,76.1,72.0,77.0,73.7,71.0,97,92,79,30.02,29.92,12,7,31,0.00
2014-5-16,75.0,74.2,71.0,71.0,67.5,59.0,87,79,65,30.03,29.99,12,11,18,0.00
2014-5-20,74.0,73.8,73.0,64.0,63.2,63.0,73,70,68,30.14,30.13,7,6,11,0.00
2014-5-21,82.0,75.0,65.0,66.0,63.6,62.0,96,68,54,30.16,30.10,12,7,21,0.00
2014-5-22,87.0,75.9,65.0,67.0,61.2,-99.9,96,65,48,30.14,30.04,8,5,15,0.00
2014-5-23,92.0,77.8,66.0,71.0,68.5,65.0,98,76,43,30.09,29.99,10,4,15,0.00
2014-5-24,92.0,79.7,70.0,73.0,70.9,69.0,97,76,49,30.07,29.99,11,5,17,0.00
2014-5-25,88.0,77.4,70.0,74.0,67.9,-99.9,98,77,50,30.11,30.01,11,5,19,0.00
2014-5-26,87.0,78.7,69.0,74.0,70.9,69.0,99,78,57,30.15,30.06,13,6,45,0.00
2014-5-27,87.0,78.8,71.0,74.0,71.4,70.0,97,79,57,30.13,30.03,12,6,18,0.00
2014-5-28,87.0,77.4,70.0,75.0,71.6,69.0,98,83,61,30.07,29.97,11,6,17,0.00
2014-5-29,84.0,75.6,72.0,76.0,72.2,70.0,97,88,72,30.03,29.95,12,6,23,0.00
2014-5-30,86.0,77.5,71.0,74.0,72.5,69.0,97,85,63,30.02,29.96,11,5,17,0.00
2014-5-31,84.0,77.6,72.0,74.0,72.6,71.0,98,85,67,30.02,29.95,10,5,17,0.00
2014-6-1,85.0,76.8,73.0,75.0,67.8,-99.9,97,79,67,30.03,29.96,14,7,23,0.00
2014-6-2,79.0,76.7,73.0,73.0,71.8,68.0,97,85,73,30.08,29.98,14,10,23,0.00
2014-6-3,81.0,77.4,73.0,68.0,66.4,63.0,79,68,57,30.06,29.98,11,8,18,0.00
2014-6-4,83.0,76.6,68.0,70.0,68.9,68.0,97,77,63,29.98,29.91,10,6,16,0.00
2014-6-5,86.0,78.0,67.0,71.0,68.6,66.0,98,74,55,29.97,29.89,11,5,17,0.00
2014-6-6,90.0,77.4,67.0,72.0,69.0,67.0,98,78,51,29.97,29.90,11,5,19,0.00
2014-6-7,92.0,82.0,73.0,75.0,72.9,71.0,99,75,50,29.99,29.92,9,5,15,0.00
2014-6-8,88.0,74.8,72.0,74.0,66.9,-99.9,97,83,57,29.99,29.91,17,5,28,0.00
2014-6-9,88.0,76.6,70.0,76.0,72.2,70.0,99,87,61,30.01,29.88,7,4,13,0.00
2014-6-10,82.0,73.8,69.0,75.0,71.8,68.0,98,93,79,30.02,29.96,14,3,26,0.00
2014-6-11,90.0,78.1,71.0,76.0,72.9,71.0,99,85,60,30.02,29.94,7,4,15,0.00
2014-6-12,91.0,75.6,70.0,73.0,70.6,69.0,99,86,49,30.03,29.95,18,7,37,0.00
2014-6-13,88.0,74.9,69.0,76.0,71.3,68.0,99,89,60,30.04,29.97,16,6,33,0.00
2014-6-14,88.0,77.5,70.0,77.0,73.3,70.0,99,87,64,30.10,30.01,12,5,17,0.00
2014-6-15,86.0,77.9,74.0,79.0,70.7,-99.9,94,86,72,30.13,30.02,10,6,16,0.00
2014-6-16,86.0,80.2,73.0,77.0,72.3,69.0,99,78,55,30.15,30.07,12,6,19,0.00
2014-6-17,82.0,75.8,73.0,75.0,72.2,70.0,98,89,74,30.15,30.06,9,5,25,0.00
2014-6-18,84.0,76.4,71.0,75.0,73.0,70.0,99,89,73,30.11,30.05,14,6,29,0.00
2014-6-19,86.0,74.9,72.0,75.0,72.7,71.0,99,92,70,30.12,30.05,9,3,18,0.00
2014-6-20,90.0,76.3,71.0,74.0,71.4,70.0,99,87,54,30.10,30.03,12,4,20,0.00
2014-6-23,91.0,85.9,79.0,76.0,74.5,72.0,89,69,52,30.11,30.01,9,6,15,0.00
2014-6-24,92.0,80.8,76.0,77.0,74.8,70.0,96,83,48,30.16,30.08,9,4,14,0.00
2014-6-25,91.0,81.6,76.0,78.0,76.3,74.0,97,84,59,30.14,30.05,9,3,18,0.00
2014-6-26,90.0,80.4,73.0,77.0,74.1,72.0,98,83,55,30.12,30.01,10,4,16,0.00
2014-6-27,88.0,81.6,76.0,78.0,76.3,70.0,98,84,66,30.11,30.02,11,4,16,0.00
2014-6-29,90.0,80.6,76.0,77.0,74.5,72.0,98,82,59,30.12,30.02,12,6,19,0.00
2014-6-30,88.0,79.3,73.0,77.0,74.6,73.0,98,86,64,30.02,29.90,11,7,17,0.00
2014-7-1,85.0,80.5,77.0,76.0,74.9,73.0,93,83,64,29.93,29.82,13,8,32,0.00
2014-7-2,90.0,80.4,76.0,75.0,73.4,72.0,94,80,55,29.94,29.85,12,8,19,0.00
2014-7-3,94.0,83.5,77.0,76.0,74.5,70.0,95,76,49,30.08,29.98,16,8,23,0.00
2014-7-4,90.0,79.9,75.0,77.0,74.5,71.0,94,84,58,30.13,30.08,13,5,27,0.00
2014-7-5,89.0,79.0,75.0,77.0,73.9,73.0,94,85,62,30.14,30.06,8,4,16,0.00
2014-7-6,84.0,73.2,74.0,76.0,64.6,-99.9,95,84,75,30.11,30.02,9,5,15,0.00
2014-7-7,85.0,77.1,74.0,75.0,73.8,73.0,97,90,68,30.10,30.02,9,3,17,0.00
2014-7-8,91.0,81.2,75.0,77.0,75.0,73.0,94,81,58,30.14,30.07,12,6,21,0.00
2014-7-9,90.0,78.4,74.0,77.0,73.6,71.0,97,86,58,30.13,30.08,12,4,19,0.00
2014-7-10,86.0,76.9,74.0,76.0,73.5,72.0,96,89,67,30.13,30.06,9,3,24,0.00
2014-7-11,88.0,81.9,74.0,77.0,74.5,73.0,97,79,62,30.14,30.06,10,6,17,0.00
2014-7-12,89.0,83.0,77.0,76.0,75.1,74.0,93,77,62,30.13,30.06,10,6,19,0.00
2014-7-13,89.0,83.0,78.0,76.0,74.4,72.0,88,75,55,30.09,30.04,9,6,18,0.00
2014-7-14,87.0,81.7,74.0,77.0,74.8,69.0,96,80,66,30.09,30.02,13,4,20,0.00
2014-7-15,88.0,78.3,72.0,77.0,74.5,69.0,96,88,59,30.04,29.97,33,6,56,0.00
2014-7-16,89.0,79.2,76.0,75.0,74.3,73.0,95,85,61,30.01,29.95,11,6,20,0.00
2014-7-17,84.0,77.8,73.0,77.0,74.6,72.0,97,89,76,30.04,29.96,7,4,11,0.00
2014-7-18,92.0,82.7,77.0,77.0,74.5,71.0,97,77,49,30.10,30.00,10,5,15,0.00
2014-7-19,91.0,82.7,76.0,77.0,75.0,70.0,96,79,53,30.10,30.01,10,3,22,0.00
2014-7-20,91.0,81.4,77.0,77.0,73.5,72.0,96,77,55,30.08,29.99,10,4,15,0.00
2014-7-21,89.0,80.1,76.0,78.0,75.9,74.0,95,87,59,30.06,29.99,12,4,19,0.00
2014-7-22,89.0,80.8,76.0,78.0,76.2,74.0,96,86,65,30.07,29.99,105,7,150,0.00
2014-7-23,88.0,81.4,77.0,78.0,76.9,74.0,97,86,72,30.10,30.02,22,5,43,0.00
2014-7-28,94.0,86.4,80.0,79.0,75.1,68.0,94,71,43,30.08,29.98,9,6,69,0.00
2014-7-29,91.0,83.6,80.0,78.0,76.2,73.0,93,79,54,30.02,29.95,9,6,31,0.00
2014-7-30,91.0,82.2,78.0,78.0,76.4,73.0,95,82,56,29.99,29.93,10,5,32,0.00
2014-7-31,90.0,75.4,78.0,77.0,66.9,74.0,94,86,59,29.99,29.93,13,5,21,0.00
2014-8-1,91.0,82.8,77.0,78.0,76.4,75.0,95,81,61,29.99,29.92,9,4,36,0.00
2014-8-2,90.0,82.4,77.0,78.0,76.7,75.0,97,83,63,29.98,29.88,7,4,12,0.00
2014-8-3,85.0,79.1,73.0,78.0,75.9,72.0,96,90,74,29.94,29.86,12,5,20,0.00
2014-8-4,87.0,77.6,74.0,76.0,73.7,71.0,96,88,69,29.99,29.87,12,6,25,0.00
2014-8-5,89.0,81.5,76.0,77.0,75.3,74.0,95,81,62,30.07,29.96,10,6,25,0.00
2014-8-6,92.0,82.6,77.0,78.0,76.0,72.0,96,81,53,30.06,29.98,10,4,44,0.00
2014-8-7,92.0,74.8,73.0,78.0,67.2,70.0,94,68,54,30.02,29.58,17,5,28,0.00
2014-8-8,91.0,82.4,75.0,78.0,75.5,73.0,97,80,57,30.05,29.97,11,4,20,0.00
2014-8-9,93.0,83.6,78.0,78.0,75.6,72.0,96,78,50,30.08,29.99,9,4,13,0.00
2014-8-10,94.0,85.4,77.0,78.0,74.9,68.0,96,73,43,30.07,29.98,9,3,13,0.00
2014-8-11,91.0,84.9,77.0,77.0,73.9,71.0,95,70,53,30.06,29.97,10,4,15,0.00
2014-8-12,91.0,85.3,79.0,77.0,74.9,72.0,93,72,54,30.03,29.96,10,5,15,0.00
2014-8-13,92.0,83.3,78.0,77.0,75.6,72.0,95,78,52,30.03,29.95,11,4,16,0.00
2014-8-14,92.0,81.4,77.0,79.0,76.6,73.0,96,86,58,30.04,29.96,12,3,18,0.00
2014-8-15,90.0,78.7,74.0,78.0,75.5,72.0,97,90,65,30.05,29.96,6,4,10,0.00
2014-8-16,91.0,79.9,74.0,78.0,74.9,73.0,98,86,55,30.11,30.00,8,3,15,0.00
2014-8-17,90.0,80.7,75.0,79.0,76.2,74.0,98,87,64,30.11,30.05,9,3,13,0.00
2014-8-18,93.0,83.7,76.0,78.0,75.9,72.0,98,79,51,30.09,29.99,7,2,10,0.00
2014-8-19,93.0,85.1,78.0,79.0,76.5,74.0,98,77,54,30.05,29.96,8,4,14,0.00
2014-8-20,93.0,84.3,79.0,79.0,76.9,75.0,95,79,54,30.09,29.99,7,3,11,0.00
2014-8-21,89.0,83.0,78.0,78.0,77.3,76.0,98,83,65,30.12,30.04,8,3,12,0.00
2014-8-22,90.0,83.5,77.0,79.0,76.6,75.0,97,80,62,30.11,29.98,7,3,10,0.00
2014-8-23,90.0,83.8,77.0,78.0,76.4,75.0,97,79,60,30.01,29.86,8,4,14,0.00
2014-8-24,93.0,82.2,77.0,78.0,72.8,73.0,96,72,50,29.89,29.73,9,5,15,0.00
2014-8-26,89.0,83.4,78.0,75.0,73.0,71.0,85,71,56,29.89,29.77,16,9,22,0.00
2014-8-27,91.0,82.0,74.0,75.0,73.5,71.0,95,76,58,29.97,29.87,10,6,17,0.00
2014-8-28,88.0,79.8,76.0,78.0,75.5,72.0,94,86,68,30.02,29.93,11,4,22,0.00
2014-8-29,91.0,81.4,76.0,78.0,75.8,72.0,97,83,56,30.08,29.98,10,4,15,0.00
2014-8-30,90.0,83.8,79.0,79.0,77.2,76.0,96,80,64,30.10,30.03,11,6,16,0.00
2014-8-31,89.0,81.2,77.0,77.0,73.0,72.0,91,74,61,30.10,30.04,11,6,17,0.00
2014-9-1,89.0,83.7,79.0,77.0,75.5,74.0,91,76,61,30.09,30.02,10,6,15,0.00
2014-9-2,87.0,80.7,76.0,77.0,74.5,72.0,95,81,62,30.08,29.97,12,5,17,0.00
2014-9-3,87.0,80.1,74.0,76.0,73.8,71.0,96,81,60,30.04,29.95,11,5,17,0.00
2014-9-4,86.0,77.9,74.0,77.0,74.5,72.0,97,89,68,30.11,30.01,10,3,15,0.00
2014-9-8,89.0,80.8,74.0,76.0,74.0,72.0,96,80,58,30.06,29.98,11,5,17,0.00
2014-9-9,88.0,81.9,75.0,77.0,74.0,71.0,97,78,58,30.06,29.97,10,5,16,0.00
2014-9-10,87.0,81.5,77.0,76.0,73.8,73.0,96,78,62,30.01,29.94,12,6,18,0.00
2014-9-11,83.0,77.9,75.0,77.0,75.0,74.0,98,90,73,30.01,29.94,10,3,15,0.00
2014-9-12,86.0,78.8,72.0,75.0,73.1,71.0,98,83,62,30.02,29.89,14,9,22,0.00
2014-9-13,86.0,78.7,73.0,76.0,73.7,70.0,97,84,66,30.10,29.99,15,6,27,0.00
2014-9-14,89.0,77.9,73.0,75.0,71.1,70.0,96,79,54,30.16,30.05,11,5,16,0.00
2014-9-15,88.0,80.4,73.0,77.0,73.6,71.0,96,80,60,30.17,30.09,9,4,15,0.00
2014-9-16,88.0,79.7,77.0,77.0,75.4,73.0,97,87,62,30.14,29.99,8,2,14,0.00
2014-9-17,88.0,79.3,75.0,75.0,72.9,71.0,98,81,57,30.03,29.90,15,4,21,0.00
2014-9-18,88.0,80.2,76.0,76.0,74.0,73.0,95,82,61,29.96,29.88,10,4,15,0.00
2014-9-19,87.0,77.7,75.0,77.0,75.0,71.0,97,92,64,29.97,29.90,10,2,14,0.00
2014-9-20,86.0,79.1,75.0,76.0,74.1,73.0,96,85,66,29.98,29.89,12,5,18,0.00
2014-9-21,88.0,77.3,73.0,75.0,72.7,72.0,96,85,58,30.06,29.95,10,4,17,0.00
2014-9-22,86.0,77.9,74.0,78.0,74.2,72.0,97,88,71,30.08,29.97,8,3,11,0.00
2014-9-23,83.0,78.1,74.0,76.0,73.3,71.0,97,85,69,30.06,29.96,16,5,25,0.00
2014-9-24,86.0,79.1,73.0,77.0,74.1,72.0,97,85,66,30.08,29.98,10,4,17,0.00
2014-9-25,87.0,79.4,76.0,79.0,76.0,74.0,97,89,73,30.07,29.99,10,4,17,0.00
2014-9-26,87.0,79.4,74.0,78.0,75.6,73.0,98,88,68,30.03,29.94,12,5,19,0.00
2014-9-27,87.0,81.2,78.0,77.0,75.6,73.0,95,83,67,30.02,29.93,11,6,18,0.00
2014-9-28,87.0,79.0,76.0,78.0,74.4,74.0,96,84,67,30.02,29.92,10,5,15,0.00
2014-9-29,89.0,80.9,75.0,76.0,75.0,72.0,97,83,62,29.98,29.83,15,5,25,0.00
2014-9-30,86.0,79.3,75.0,78.0,75.5,73.0,97,88,69,29.90,29.83,12,5,26,0.00
2014-10-1,89.0,80.9,76.0,78.0,75.9,74.0,98,85,64,29.99,29.87,13,4,23,0.00
2014-10-2,90.0,82.5,77.0,77.0,75.4,73.0,95,80,55,30.06,29.95,9,5,15,0.00
2014-10-3,92.0,81.7,74.0,78.0,75.4,72.0,97,82,55,30.06,29.94,10,4,22,0.00
2014-10-4,88.0,80.8,76.0,77.0,75.1,72.0,98,83,59,30.02,29.83,14,7,21,0.00
2014-10-5,83.0,74.2,67.0,72.0,64.1,61.0,85,69,53,30.01,29.90,13,8,17,0.00
2014-10-6,82.0,76.5,70.0,70.0,67.8,66.0,90,75,61,30.08,29.98,12,7,18,0.00
2014-10-7,84.0,78.0,73.0,74.0,72.4,70.0,94,82,67,30.11,30.02,10,4,15,0.00
2014-10-8,85.0,79.5,75.0,76.0,73.3,69.0,97,81,66,30.13,30.04,10,5,15,0.00
2014-10-9,86.0,79.5,73.0,74.0,71.5,69.0,93,76,58,30.09,30.00,13,6,19,0.00
2014-10-10,86.0,79.9,74.0,73.0,71.7,70.0,95,76,59,30.05,29.96,13,7,20,0.00
2014-10-11,86.0,80.4,74.0,73.0,71.0,69.0,95,74,56,30.02,29.95,11,6,16,0.00
2014-10-12,86.0,78.9,74.0,74.0,71.6,71.0,92,77,64,30.05,29.98,11,6,17,0.00
2014-10-13,85.0,81.5,77.0,75.0,72.4,71.0,83,73,63,30.07,30.01,14,9,21,0.00
2014-10-14,87.0,81.5,78.0,77.0,74.5,71.0,92,79,66,30.03,29.92,14,7,19,0.00
2014-10-15,88.0,79.0,74.0,77.0,75.0,72.0,97,88,59,30.00,29.88,10,4,17,0.00
2014-10-16,82.0,76.1,70.0,76.0,66.6,62.0,97,73,53,29.97,29.86,13,7,18,0.00
2014-10-17,83.0,73.6,66.0,69.0,61.2,56.0,89,67,40,29.98,29.89,9,5,13,0.00
2014-10-18,85.0,74.2,67.0,70.0,65.4,61.0,96,76,44,29.98,29.89,5,3,10,0.00
2014-10-19,85.0,74.0,67.0,71.0,66.3,64.0,97,76,52,30.01,29.93,9,4,16,0.00
2014-10-20,85.0,77.7,69.0,73.0,67.5,63.0,96,72,48,30.02,29.92,7,4,13,0.00
2014-10-21,81.0,75.0,70.0,74.0,71.9,69.0,97,90,74,29.96,29.89,13,4,20,0.00
2014-10-22,84.0,75.6,71.0,74.0,71.3,70.0,98,87,62,29.97,29.89,7,2,9,0.00
2014-10-23,77.0,74.4,71.0,72.0,69.3,66.0,97,85,70,29.95,29.87,12,6,18,0.00
2014-10-24,79.0,76.1,71.0,69.0,67.8,66.0,86,75,70,29.92,29.82,15,10,22,0.00
2014-10-25,82.0,72.8,66.0,67.0,64.3,62.0,91,76,54,29.94,29.85,11,7,16,0.00
2014-10-26,82.0,72.4,66.0,66.0,62.0,57.0,91,74,42,30.02,29.89,9,6,15,0.00
2014-10-27,81.0,72.7,65.0,69.0,64.7,62.0,93,77,55,30.09,29.99,10,4,16,0.00
2014-10-28,83.0,74.7,68.0,69.0,67.0,65.0,94,78,56,30.14,30.07,11,5,17,0.00
2014-10-29,86.0,77.2,70.0,71.0,67.8,65.0,96,74,51,30.11,29.97,8,3,13,0.00
2014-10-30,84.0,74.7,69.0,71.0,68.4,64.0,98,82,50,29.99,29.85,7,3,11,0.00
2014-10-31,82.0,74.4,69.0,71.0,67.8,56.0,96,80,61,29.88,29.75,12,6,18,0.00
2014-11-1,74.0,65.3,56.0,60.0,53.1,42.0,94,66,45,30.13,29.88,18,10,25,0.00
2014-11-2,68.0,58.3,51.0,53.0,45.0,40.0,79,62,39,30.25,30.13,12,9,18,0.00
2014-11-3,75.0,67.5,56.0,58.0,54.1,46.0,76,62,52,30.28,30.20,13,9,21,0.00
2014-11-4,77.0,72.9,68.0,61.0,57.9,55.0,68,59,46,30.24,30.14,15,9,24,0.00
2014-11-5,79.0,75.0,72.0,67.0,64.7,62.0,82,70,62,30.16,30.07,15,9,25,0.00
2014-11-6,82.0,73.5,65.0,67.0,64.5,60.0,96,75,48,30.11,29.96,8,4,13,0.00
2014-11-7,80.0,70.4,66.0,67.0,65.4,61.0,96,84,52,29.97,29.88,8,4,11,0.00
2014-11-8,79.0,68.7,65.0,69.0,65.0,64.0,96,86,68,29.93,29.81,10,4,13,0.00
2014-11-9,70.0,67.2,65.0,69.0,66.4,64.0,98,96,93,29.89,29.81,10,4,14,0.00
2014-11-10,75.0,68.5,64.0,66.0,64.8,63.0,98,88,69,29.93,29.86,10,6,15,0.00
2014-11-11,78.0,68.4,61.0,65.0,60.5,56.0,95,77,51,29.93,29.86,13,7,19,0.00
2014-11-12,81.0,68.2,63.0,66.0,59.2,57.0,96,75,55,30.02,29.93,11,7,16,0.00
2014-11-13,83.0,70.7,64.0,68.0,65.1,63.0,97,85,51,30.03,29.93,7,4,10,0.00
2014-11-14,80.0,70.8,65.0,66.0,63.1,55.0,98,79,42,30.09,29.95,9,5,13,0.00
2014-11-15,80.0,68.5,62.0,67.0,62.6,61.0,95,80,62,30.17,30.07,9,6,14,0.00
2014-11-16,81.0,73.7,67.0,70.0,67.1,63.0,96,80,67,30.17,30.05,10,6,16,0.00
2014-11-17,86.0,78.2,72.0,75.0,72.6,68.0,97,83,64,30.05,29.90,14,7,19,0.00
2014-11-18,73.0,66.3,56.0,69.0,63.3,53.0,96,90,80,30.19,29.94,15,8,20,0.00
2014-11-19,65.0,58.5,53.0,60.0,54.7,51.0,94,87,80,30.23,30.15,11,9,15,0.00
2014-11-20,76.0,68.7,60.0,61.0,59.4,57.0,91,73,58,30.19,30.09,13,9,21,0.00
2014-11-21,72.0,69.4,67.0,68.0,64.6,60.0,95,85,67,30.20,30.11,14,10,23,0.00
2014-11-22,77.0,72.6,70.0,72.0,66.9,65.0,94,80,74,30.19,30.07,16,13,23,0.00
2014-11-23,81.0,77.9,75.0,75.0,73.0,72.0,92,84,75,30.07,29.91,15,10,20,0.00
2014-11-24,87.0,79.5,73.0,77.0,74.9,73.0,97,86,65,30.04,29.93,10,6,14,0.00
2014-11-25,84.0,79.0,76.0,76.0,74.1,73.0,97,85,69,30.05,29.92,16,9,23,0.00
2014-11-26,78.0,68.8,57.0,75.0,64.7,50.0,94,86,68,30.20,29.91,16,10,23,0.00
2014-11-27,72.0,61.6,54.0,57.0,50.1,43.0,91,68,40,30.28,30.15,14,8,20,0.00
2014-11-28,68.0,58.2,51.0,54.0,49.1,45.0,82,71,58,30.25,30.17,15,10,21,0.00
2014-11-29,74.0,63.1,54.0,57.0,53.2,51.0,92,70,53,30.26,30.18,12,8,19,0.00
2014-11-30,76.0,70.0,60.0,62.0,57.6,54.0,86,65,53,30.28,30.21,14,8,24,0.00
2014-12-1,78.0,72.4,66.0,68.0,64.2,61.0,95,75,63,30.27,30.17,18,10,27,0.00
2014-12-2,78.0,74.0,71.0,68.0,66.5,65.0,85,77,68,30.19,30.09,15,10,24,0.00
2014-12-3,80.0,72.8,68.0,67.0,66.3,65.0,95,80,63,30.14,30.06,14,8,21,0.00
2014-12-4,80.0,73.4,67.0,70.0,67.8,66.0,97,82,68,30.15,30.07,14,8,21,0.00
2014-12-5,80.0,74.7,71.0,70.0,68.6,67.0,92,81,69,30.19,30.10,13,8,20,0.00
2014-12-6,79.0,71.3,67.0,67.0,64.7,64.0,94,79,61,30.19,30.09,8,5,14,0.00
2014-12-7,74.0,67.8,63.0,67.0,64.6,61.0,97,89,75,30.09,30.00,12,6,16,0.00
2014-12-8,74.0,63.1,57.0,63.0,60.0,57.0,98,90,59,30.08,29.98,8,5,11,0.00
2014-12-9,66.0,61.8,56.0,62.0,57.6,51.0,98,86,71,30.04,29.96,13,9,19,0.00
2014-12-10,64.0,52.6,51.0,52.0,41.3,39.0,93,62,41,30.15,30.04,13,8,19,0.00
2014-12-11,67.0,56.0,48.0,56.0,50.5,47.0,95,81,58,30.21,30.10,10,3,15,0.00
2014-12-12,66.0,57.9,49.0,56.0,48.3,40.0,95,72,38,30.24,30.12,10,6,14,0.00
2014-12-13,74.0,61.8,52.0,56.0,51.8,48.0,96,72,45,30.15,30.04,10,7,15,0.00
2014-12-14,73.0,60.5,53.0,59.0,49.6,45.0,95,68,45,30.10,30.01,7,5,10,0.00
2014-12-15,75.0,62.4,53.0,58.0,52.3,48.0,95,72,39,30.12,30.03,5,3,10,0.00
2014-12-16,76.0,62.2,54.0,60.0,55.9,54.0,97,82,49,30.18,30.10,7,4,10,0.00
2014-12-17,78.0,64.6,54.0,61.0,57.1,53.0,97,79,48,30.20,30.07,6,3,9,0.00
2014-12-18,74.0,64.2,58.0,60.0,57.9,55.0,97,81,56,30.17,30.06,9,4,13,0.00
2014-12-19,77.0,64.7,56.0,64.0,58.3,52.0,96,81,56,30.10,30.01,7,3,10,0.00
2014-12-20,78.0,62.2,58.0,64.0,57.5,57.0,97,82,60,30.09,30.01,9,3,13,0.00
2014-12-21,80.0,69.3,61.0,68.0,64.1,60.0,98,84,61,30.10,30.01,10,4,14,0.00
2014-12-22,82.0,72.6,64.0,70.0,67.1,63.0,97,83,61,30.03,29.92,10,5,16,0.00
2014-12-23,82.0,75.8,65.0,72.0,69.7,64.0,98,82,65,29.97,29.89,14,8,20,0.00
2014-12-24,83.0,76.8,72.0,74.0,71.8,70.0,93,84,67,29.96,29.89,15,9,21,0.00
2014-12-25,76.0,68.9,66.0,74.0,62.7,54.0,96,80,57,30.16,29.94,13,7,23,0.00
2014-12-26,74.0,66.6,63.0,71.0,62.7,59.0,98,87,79,30.19,30.12,10,6,14,0.00
2014-12-27,80.0,71.5,67.0,72.0,68.2,66.0,99,87,73,30.21,30.13,6,3,9,0.00
2014-12-28,82.0,72.2,64.0,71.0,67.6,64.0,98,86,66,30.17,30.08,9,4,13,0.00
2014-12-29,81.0,73.4,67.0,73.0,69.1,66.0,98,87,69,30.13,30.05,11,5,13,0.00
2014-12-30,84.0,73.6,67.0,70.0,68.5,65.0,98,85,52,30.20,30.08,6,3,9,0.00
2014-12-31,76.0,71.7,69.0,71.0,69.4,68.0,97,92,80,30.22,30.11,11,6,15,0.00
2015-1-1,76.0,71.7,70.0,70.0,69.7,68.0,98,93,79,30.21,30.12,7,4,10,0.00
2015-1-2,81.0,74.2,70.0,73.0,70.6,68.0,98,88,71,30.25,30.17,11,5,17,0.00